Flag for Germany Weather past 2 weeks in Konstanz, Baden-Württemberg, Germany

Now
84 °F

Partly sunny.


Feels Like: 83 °F
Forecast: 58 / 87 °F
Wind: 3 mph from South

Location: Konstanz

Current Time: Aug 28, 2015 at 3:03:32 PM

Latest Report: Aug 28, 2015 at 2:00 PM


Visibility: 34 mi

Pressure: 30.03 "Hg

Humidity: 41%

Dew point: 58 °F

Location of KonstanzLocation

Historic Weather in Konstanz — Graph

°F

Konstanz temperature yesterday

Maximum temperature yesterday: 84 °F (at 6:00 PM)
Minimum temperature yesterday: 58 °F (at 7:00 AM)
Average temperature yesterday: 72 °F

Past Weeks' High & Low Weather Summary

 TemperatureHumidityPressure
High92 °F (Aug 13, 5:00 PM)97% (Aug 21, 6:00 AM)30.27 "Hg (Aug 21, 6:00 AM)
Low53 °F (Aug 26, 7:00 AM)29% (Aug 26, 3:00 PM)29.70 "Hg (Aug 24, 8:00 AM)
Average65 °F72%29.97 "Hg
* Reported Aug 13 2:00 PM — Aug 28 2:00 PM, Konstanz, Weather by CustomWeather, © 2015

Note: Actual official high and low records may vary slightly from our data, if they occured in-between our weather recording intervals... More about our weather records

Advertising

Konstanz weather history for previous 24 hours

 ConditionsComfort  
Time TempWeatherWind HumidityBarometerVisibility
2:00 PM
Fri, Aug 28
84 °FPartly sunny.3 mph41%30.03 "Hg34 mi
1:00 PM82 °FOvercast.2 mph43%30.03 "Hg31 mi
12:00 PM78 °FOvercast.3 mph55%30.04 "Hg31 mi
11:00 AM76 °FPartly sunny.2 mph59%30.04 "Hg28 mi
10:00 AM74 °FPartly sunny.2 mph64%30.03 "Hg28 mi
9:00 AM72 °FOvercast.1 mph71%30.03 "Hg25 mi
8:00 AM67 °FOvercast.2 mph83%30.02 "Hg28 mi
7:00 AM66 °FOvercast.1 mph83%30.01 "Hg22 mi
6:00 AM67 °FOvercast.1 mph81%30.00 "Hg19 mi
5:00 AM66 °FClear.1 mph83%29.98 "Hg31 mi
4:00 AM66 °FClear.2 mph83%29.97 "Hg25 mi
3:00 AM69 °FClear.1 mph69%29.94 "Hg40 mi
2:00 AM72 °FPassing clouds.3 mph64%29.93 "Hg43 mi
1:00 AM68 °FPassing clouds.No wind85%29.93 "Hg22 mi
11:00 PM
Thu, Aug 27
71 °FClear.2 mph69%29.90 "Hg34 mi
10:00 PM72 °FClear.No wind62%29.89 "Hg43 mi
9:00 PM73 °FClear.1 mph59%29.87 "Hg43 mi
8:00 PM79 °FSunny.1 mph42%29.85 "Hg43 mi
7:00 PM83 °FSunny.1 mph37%29.84 "Hg43 mi
6:00 PM84 °FSunny.2 mph34%29.84 "Hg31 mi
5:00 PM81 °FOvercast.2 mph42%29.85 "Hg25 mi
4:00 PM82 °FOvercast.2 mph36%29.86 "Hg25 mi
3:00 PM81 °FPartly sunny.3 mph41%29.88 "Hg25 mi
Weather by CustomWeather, © 2015

See weather overviewHow to use our weather pages